Regional Weather Roundup
Issued by NWS

Home | Current Version | Previous Version | Graphics & Text | Print | Product List | Glossary On
Versions: 1 2 3 4 5 6 7 8 9 10 11 12 13 14 15 16 17 18 19 20 21 22 23 24 25 26 27 28 29 30 31 32 33 34 35 36 37 38 39 40 41 42 43 44 45 46 47 48 49 50
000
ASUS44 KMEG 230500
RWRTN
TENNESSEE HOURLY STATE WEATHER ROUNDUP
NATIONAL WEATHER SERVICE MEMPHIS TN
1200 AM CDT TUE SEP 23 2014

TNZ002-004-019-021-049-052-054-088>092-230600-
WEST TENNESSEE

CITY           SKY/WX    TMP DP  RH WIND       PRES   REMARKS
MEMPHIS INTL   CLEAR     63  47  55 NE6       30.21S
NWS MEMPHIS      N/A     62 N/A N/A MISG        N/A
JACKSON        CLEAR     56  47  71 NE6       30.21F
DYERSBURG      CLEAR     55  39  54 NE5       30.24S
UNION CITY     CLEAR     52  48  87 CALM      30.23S
PARIS          CLEAR     48  45  87 N5        30.23S
LEXINGTON      CLEAR     52  46  82 N6        30.20F
SAVANNAH       CLEAR     50  50 100 N5        30.20F
$$

TNZ008-025-027-028-033-062-065-066-230600-
NORTH MIDDLE TENNESSEE

CITY           SKY/WX    TMP DP  RH WIND       PRES   REMARKS
NASHVILLE      CLEAR     56  48  74 NE8       30.23S
CLARKSVILLE    CLEAR     53  45  74 N3        30.23F
COOKEVILLE     CLEAR     45  45 100 CALM      30.22S
CROSSVILLE     CLEAR     52  45  77 NE6       30.23F
$$

TNZ061-075-076-078-094-096-097-230600-
SOUTH MIDDLE TENNESSEE

CITY           SKY/WX    TMP DP  RH WIND       PRES   REMARKS
FAYETTEVILLE   CLEAR     55  45  67 NE8       30.19F
TULLAHOMA      CLEAR     55  45  67 NE3       30.21S
WINCHESTER     CLEAR     55  46  71 VRB3      30.20S
COLUMBIA       CLEAR     52  50  93 CALM      30.20F
SHELBYVILLE    CLEAR     57  46  67 N6        30.21S
$$

TNZ017-018-042-046-047-230600-
NORTHEAST TENNESSEE

CITY           SKY/WX    TMP DP  RH WIND       PRES   REMARKS
TRI CITIES     CLEAR     50  46  86 CALM      30.24F
ELIZABETHTON   CLEAR     45  45 100 CALM      30.24F
$$

TNZ012-013-036-069-073-074-230600-
CENTRAL EAST TENNESSEE

CITY           SKY/WX    TMP DP  RH WIND       PRES   REMARKS
KNOXVILLE      CLEAR     57  50  77 N9        30.20S
OAK RIDGE      CLEAR     54  49  83 CALM      30.23S
GATLINBURG     CLEAR     50  48  93 CALM      30.21F
$$

TNZ083-085-099-230600-
SOUTHEAST TENNESSEE

CITY           SKY/WX    TMP DP  RH WIND       PRES   REMARKS
CHATTANOOGA    CLEAR     61  48  62 NE7       30.18F
$$

SKY/WX REPORTED AS FAIR MEANS FEW OR NO CLOUDS BELOW
12 THOUSAND FEET.



USA.gov is the U.S. government's official web portal to all federal, state and local government web resources and services.